Location: Newark
(22.3060°N, 114.2134°E)
Time: 18:59:50
(UTC+00:00)

Explorer 11/Cluster Stage 4 - Pass Details

Date: 31 July 2021
Orbit: 467 x 1256 km, 28.8° (Epoch: 27 September)

Event Time Altitude Azimuth Distance (km) Brightness Sun altitude
Rises 03:12:38 0° 274° (W) 4,179 10.1 71.5°
Reaches altitude 10° 03:15:39 10° 278° (W) 3,226 9.7 72.2°
Maximum altitude 03:23:43 55° 355° (N) 1,438 8.8 74.0°
Drops below altitude 10° 03:31:07 10° 71° (ENE) 2,972 9.9 75.7°
Sets 03:33:48 0° 76° (ENE) 3,832 10.3 76.3°
